www.pogodaiklimat.ru

Погода и климат >> Архив погоды >> Пакистан >> Кот Адду


ПОГОДА в Кот Адду

  • Прогноз погоды в Кот Адду
  • Монитор погоды в Кот Адду

АРХИВ ПОГОДЫ в Кот Адду

Время (UTC), дата Ветер
(напр.,м/с)
 
Видим.   Явления Облачность Т
(С)
Тd
(С)
f
(%)
Тe
(С)
Тes
(С)
Комфортность P
(гПа)
Po
(гПа)
Тmin
(С)
Tmax
(С)
R
(мм)
R24
(мм)
S
(см)
12 12.08 ЮВ 1 4000 м ясно +35.5 +26.6 60 +52 +56 опасность
перегрева
997.5 985.0 +37.0
15 12.08 СЗ 1 4000 м ясно +32.5 +27.8 76 +52 +52 опасность
перегрева
997.7 983.2
18 12.08 СЗ 1 4000 м ясно +30.5 +26.4 79 +47 +47 опасность
перегрева
998.4 985.0
00 13.08 ЮЗ 2 4000 м ясно +28.5 +25.7 85 +42 +42 опасность
перегрева
997.9 983.9
03 13.08 ЮВ 2 4000 м ясно +30.0 +25.8 78 +45 +50 опасность
перегрева
998.7 985.2 +28.3
06 13.08 ЮВ 2 4000 м ясно +34.5 +27.7 68 +54 +73 опасность
перегрева
999.2 984.8
09 13.08 ЮВ 2 4000 м 5/0
[Ac trans]
+36.0 +28.7 66 +58 +70 опасность
перегрева
998.2 983.8
12 13.08 ЮВ 2 4000 м ясно +35.5 +28.1 66 +57 +60 опасность
перегрева
996.9 984.4 +37.2
15 13.08 ЮВ 2 4000 м ясно +33.5 +28.1 73 +54 +54 опасность
перегрева
997.3 982.8
18 13.08 ЮВ 2 4000 м ясно +31.5 +27.4 79 +50 +50 опасность
перегрева
998.9 985.7
21 13.08 ЮВ 1 4000 м ясно +30.0 +26.5 82 +46 +46 опасность
перегрева
998.4 983.8
00 14.08 штиль 0 4000 м ясно +29.0 +26.2 85 +44 +44 опасность
перегрева
998.4 984.8
03 14.08 Ю 2 4000 м ясно +30.5 +26.4 79 +47 +52 опасность
перегрева
999.1 985.7 +28.5
06 14.08 ЮВ 1 4000 м ясно +34.0 +27.9 71 +55 +76 опасность
перегрева
1000.1 985.6
09 14.08 ЮЗ 2 4000 м 4/0
[Ac trans]
+36.5 +29.2 66 +60 +73 опасность
перегрева
999.5 985.2
12 14.08 ЮЗ 2 4000 м 8/4 1050 м
[Sc Ac trans]
+35.5 +28.1 66 +57 +58 опасность
перегрева
998.6 986.1 +37.5
15 14.08 штиль 0 4000 м 4/0
[Ac trans]
+33.0 +27.6 73 +52 +52 опасность
перегрева
999.7 985.2
18 14.08 штиль 0 4000 м ясно +31.5 +27.4 79 +50 +50 опасность
перегрева
1001.3 988.1
21 14.08 штиль 0 4000 м ясно +30.5 +27.1 82 +48 +48 опасность
перегрева
1000.9 986.3
00 15.08 штиль 0 4000 м 4/0
[Ac trans]
+30.5 +26.5 79 +47 +47 опасность
перегрева
1001.3 986.6
03 15.08 штиль 0 4000 м 4/0
[Ac trans]
+31.0 +27.6 82 +50 +55 опасность
перегрева
1001.8 988.5 +29.5
06 15.08 штиль 0 4000 м 4/0
[Ac trans]
+34.5 +27.7 68 +54 +73 опасность
перегрева
1002.0 987.5
09 15.08 штиль 0 4000 м 5/0
[Ac trans]
+36.5 +27.8 61 +56 +72 опасность
перегрева
1000.7 986.3
12 15.08 штиль 0 4000 м 3/0
[Ac trans]
+37.0 +27.6 59 +56 +60 опасность
перегрева
998.2 986.0 +37.8 +37.8
15 15.08 штиль 0 4000 м ясно +34.5 +28.5 71 +57 +57 опасность
перегрева
998.2 983.8
18 15.08 штиль 0 4000 м ясно +32.5 +27.8 76 +52 +52 опасность
перегрева
999.4 986.4
21 15.08 штиль 0 4000 м ясно +31.0 +27.6 82 +50 +50 опасность
перегрева
998.9 984.3
00 16.08 штиль 0 4000 м 4/0
[Ac trans]
+30.5 +27.1 82 +48 +48 опасность
перегрева
999.3 985.9
03 16.08 штиль 0 4000 м 4/0
[Ac trans]
+31.5 +28.1 82 +52 +57 опасность
перегрева
999.9 986.7 +30.4
06 16.08 штиль 0 4000 м ясно +36.0 +28.7 66 +58 +83 опасность
перегрева
997.2 982.9
09 16.08 ЮЗ 2 4000 м 4/0
[Ac trans]
+38.5 +27.8 55 +58 +71 опасность
перегрева
997.8 983.6
12 16.08 ЮЗ 2 4000 м 5/0
[Ac trans]
+38.5 +28.5 57 +60 +62 опасность
перегрева
995.4 983.4 +39.2
15 16.08 СВ 3 2000 м слаб. дождь {гроза} 10/1 900 м
[Cb calv Ac As]
+23.5 +22.8 96 +31 +31 очень
душно
1000.1 985.1 32
18 16.08 штиль 0 4000 м 10/3 1200 м
[Sc Ac As]
+25.0 +22.8 88 +33 +33 очень
душно
1000.2 985.6 33
21 16.08 штиль 0 4000 м 6/0
[Ac trans]
+27.0 +23.4 81 +37 +37 очень
душно
1001.2 986.4
00 17.08 штиль 0 4000 м 5/0
[Ac trans]
+26.0 +24.6 92 +37 +37 очень
душно
999.6 985.2
03 17.08 штиль 0 4000 м ясно +27.5 +24.7 85 +39 +46 очень
душно
1000.1 987.1 +23.3
06 17.08 СЗ 2 4000 м ясно +32.0 +25.8 70 +47 +65 опасность
перегрева
1001.0 986.4
12 17.08 СЗ 2 4000 м 4/0
[Ac trans]
+35.5 +28.1 66 +57 +59 опасность
перегрева
998.1 985.6 +36.0
15 17.08 штиль 0 4000 м ясно +33.5 +28.8 76 +56 +56 опасность
перегрева
999.2 984.7
18 17.08 штиль 0 4000 м ясно +31.0 +26.9 79 +48 +48 опасность
перегрева
1000.3 987.0
21 17.08 штиль 0 4000 м ясно +29.5 +26.7 85 +46 +46 опасность
перегрева
999.9 985.2
00 18.08 штиль 0 4000 м в посл. час дождь 6/3 1200 м
[Sc Ac trans]
+28.5 +27.1 92 +45 +45 опасность
перегрева
1000.3 986.3 2
03 18.08 штиль 0 4000 м 4/0
[Ac trans]
+29.0 +26.2 85 +44 +49 опасность
перегрева
1002.5 988.8 +28.3
06 18.08 штиль 0 4000 м 4/0
[Ac trans]
+33.0 +27.6 73 +52 +71 опасность
перегрева
1002.5 987.9
09 18.08 штиль 0 4000 м 5/0
[Ac trans]
+35.0 +28.3 68 +56 +72 опасность
перегрева
1001.3 986.9
12 18.08 штиль 0 4000 м 8/3 1200 м
[Sc Ac trans]
+35.0 +28.3 68 +56 +58 опасность
перегрева
999.6 987.0 +37.0
21 18.08 штиль 0 4000 м ясно +26.0 +23.1 84 +35 +35 очень
душно
1002.8 987.9
00 19.08 штиль 0 4000 м 4/0
[Ac trans]
+26.5 +24.4 88 +37 +37 очень
душно
1003.3 989.0
03 19.08 штиль 0 4000 м ясно +27.5 +25.4 88 +40 +47 очень
душно
1005.7 991.6 +25.3
06 19.08 штиль 0 4000 м ясно +31.0 +24.6 69 +44 +68 опасность
перегрева
1006.8 992.1

 

Местоположение метеостанции Кот Адду (Пакистан): широта 30.45 долгота 70.95 высота над уровнем моря 131 м.

В архиве по умолчанию представлена погода в Кот Адду за последнюю неделю. Архивные данные за месяц целиком и за предыдущие месяцы, начиная с января 2011 года, Вы можете получить, выбрав интересующий диапазон дат из раскрывающегося списка и нажав кнопку "Ввод!".


*Определитесь, кто Вы:
робот инопланетянин человек

Внимание! Время в таблицах - всемирное. Для получения местного времени необходимо прибавить поправку, которая равна 5 ч.

Смотрите также архив погоды в соседних городах и на ближайших метеорологических станциях:

Погода в Мултане (Пакистан) (54 км)
Погода в Дера Гази Хан (Пакистан) (54 км)
Погода в Леяхе (Пакистан) (63 км)
Погода в Ханевале (Пакистан) (93 км)
Погода на Авиабазе Raifiqui (Пакистан) (125 км)
Погода в Бхаккаре (Пакистан) (131 км)
Погода в Бархане (Пакистан) (134 км)
Погода в Бахавалпуре (Пакистан) (142 км)
Погода а Бахавалпур аэропорту (Пакистан) (142 км)
Погода в Дера-Исмаил-Хане (Пакистан) (152 км)

Пояснения к столбцам:

Ветер - указаны скорость ветра в м/с - средняя за 10 мин, порывы в срок и между сроками (в фигурных скобках) и направление, откуда дует ветер: С - северный, СВ - северо-восточный, В - восточный, ЮВ - юго-восточный, Ю - южный, ЮЗ - юго-западный, З - западный, СЗ - северо-западный.
Видимость - горизонтальная дальность видимости в метрах или километрах. При видимости от 1 до 10 км при отсутствии осадков обычно наблюдается дымка, при ухудшении видимости до 1 км и менее - туман. В сухую погоду видимость может ухудшаться дымом, пылью или мглою.
Явления - указаны атмосферные явления, наблюдавшиеся в срок или в последний час перед сроком; фигурными скобками обозначены явления, наблюдавшиеся между сроками (за 1-3 часа до срока); квадратными скобками обозначены град или гололедные отложения с указанием их диаметра в мм.
Облачность - указаны через наклонную черту общая и нижняя облачность в баллах и высота нижней границы облаков в метрах; квадратными скобками обозначены формы облаков: Ci - перистые, Cs - перисто-слоистые, Cc - перисто-кучевые, Ac - высококучевые, As - высокослоистые, Sc - слоисто-кучевые, Ns - слоисто-дождевые, Cu - кучевые, Cb - кучево-дождевые. Подробнее классификацию облаков см. в Атласе облаков (PDF).
T - Температура воздуха - температура, измеренная на высоте 2 м над землей.
Td - Температура точки росы - температура, при понижении до которой содержащийся в воздухе водяной пар достигнет насыщения.
f - Относительная влажность воздуха - влажноcть воздуха, измеренная на высоте 2 м над землей.
Te - Эффективная температура - температура, которую ощущает одетый по сезону человек в тени. Характеристика душности погоды. При расчете учитывается влияние влажности воздуха и скорости ветра на теплоощущения человека.
Tes - Эффективная температура на солнце - температура, которую ощущает человек, с поправкой на солнечный нагрев. Характеристика знойности погоды. Зависит от высоты солнца над горизонтом, облачности и скорости ветра. Ночью, в пасмурную погоду, а также при ветре 12 м/с и более поправка равна нулю.
P - Атмосферное давление - приведенное к уровню моря атмосферное давление.
Po - Атмосферное давление - измеренное на уровне метеостанции атмосферное давление.
Tmin - Минимальная температура - минимум температуры воздуха на высоте 2 м над землей.
Tmax - Максимальная температура - максимум температуры воздуха на высоте 2 м над землей.
R - Количество осадков - Количество выпавших осадков за период времени, мм. При наведении курсора мыши на число - период времени, за который выпало указанное количество осадков.
R24 - Количество осадков - Количество выпавших осадков за 24 часа, мм.
S - Снежный покров - Высота снежного покрова, см. При наведении курсора мыши на число - состояние снежного покрова и степень покрытия местности в баллах.